Time,TemperatureF,DewpointF,PressureIn,WindDirection,WindDirectionDegrees,WindSpeedMPH,WindSpeedGustMPH,Humidity,HourlyPrecipIn,Conditions,Clouds,dailyrainin,SoftwareType,DateUTC
2013-06-22 00:07:00,77.5,62.0,29.71,WSW,253,0.0,0.0,59,0.00,,,0.00,weatherlink.com 1.10,2013-06-22 06:07:00,
2013-06-22 00:22:00,77.4,62.0,29.71,WSW,253,0.0,0.0,60,0.00,,,0.00,weatherlink.com 1.10,2013-06-22 06:22:00,
2013-06-22 00:37:00,77.5,62.0,29.71,WSW,253,0.0,0.0,60,0.00,,,0.00,weatherlink.com 1.10,2013-06-22 06:37:00,
2013-06-22 00:52:00,77.5,62.0,29.70,WSW,253,0.0,0.0,60,0.00,,,0.00,weatherlink.com 1.10,2013-06-22 06:52:00,
2013-06-22 01:07:00,77.7,63.0,29.70,WSW,253,0.0,0.0,60,0.00,,,0.00,weatherlink.com 1.10,2013-06-22 07:07:00,
2013-06-22 01:22:00,77.7,63.0,29.70,WSW,253,0.0,0.0,60,0.00,,,0.00,weatherlink.com 1.10,2013-06-22 07:22:00,
2013-06-22 01:37:00,77.7,62.0,29.69,WSW,253,0.0,0.0,58,0.00,,,0.00,weatherlink.com 1.10,2013-06-22 07:37:00,
2013-06-22 01:52:00,77.4,62.0,29.69,WSW,253,0.0,0.0,59,0.00,,,0.00,weatherlink.com 1.10,2013-06-22 07:52:00,
2013-06-22 02:07:00,77.2,62.0,29.69,WSW,253,0.0,0.0,59,0.00,,,0.00,weatherlink.com 1.10,2013-06-22 08:07:00,
2013-06-22 02:22:00,77.3,62.0,29.69,WSW,253,0.0,0.0,59,0.00,,,0.00,weatherlink.com 1.10,2013-06-22 08:22:00,
2013-06-22 02:37:00,77.3,62.0,29.69,WSW,253,0.0,0.0,60,0.00,,,0.00,weatherlink.com 1.10,2013-06-22 08:37:00,
2013-06-22 07:42:00,77.4,63.0,29.75,WSW,253,0.0,0.0,61,0.00,,,0.00,weatherlink.com 1.10,2013-06-22 13:42:00,
2013-06-22 07:52:00,77.4,63.0,29.75,WSW,253,0.0,0.0,61,0.00,,,0.00,weatherlink.com 1.10,2013-06-22 13:52:00,
2013-06-22 08:07:00,77.5,63.0,29.76,WSW,253,0.0,0.0,61,0.00,,,0.00,weatherlink.com 1.10,2013-06-22 14:07:00,
2013-06-22 08:22:00,77.5,63.0,29.75,WSW,253,0.0,0.0,61,0.00,,,0.00,weatherlink.com 1.10,2013-06-22 14:22:00,
2013-06-22 08:37:00,77.6,63.0,29.75,WSW,253,0.0,0.0,61,0.00,,,0.00,weatherlink.com 1.10,2013-06-22 14:37:00,
2013-06-22 08:52:00,77.6,63.0,29.76,WSW,253,0.0,0.0,61,0.00,,,0.00,weatherlink.com 1.10,2013-06-22 14:52:00,
2013-06-22 09:07:00,77.6,63.0,29.76,WSW,253,0.0,0.0,61,0.00,,,0.00,weatherlink.com 1.10,2013-06-22 15:07:00,
2013-06-22 09:22:00,77.5,63.0,29.75,WSW,253,0.0,0.0,61,0.00,,,0.00,weatherlink.com 1.10,2013-06-22 15:22:00,
2013-06-22 09:37:00,77.6,63.0,29.75,WSW,253,0.0,0.0,61,0.00,,,0.00,weatherlink.com 1.10,2013-06-22 15:37:00,
2013-06-22 09:52:00,77.7,63.0,29.75,WSW,253,0.0,0.0,61,0.00,,,0.00,weatherlink.com 1.10,2013-06-22 15:52:00,
2013-06-22 10:07:00,77.7,62.0,29.75,WSW,253,0.0,0.0,59,0.00,,,0.00,weatherlink.com 1.10,2013-06-22 16:07:00,
2013-06-22 10:22:00,77.5,62.0,29.75,WSW,253,0.0,0.0,60,0.00,,,0.00,weatherlink.com 1.10,2013-06-22 16:22:00,
2013-06-22 10:37:00,77.5,62.0,29.75,WSW,253,0.0,0.0,60,0.00,,,0.00,weatherlink.com 1.10,2013-06-22 16:37:00,
2013-06-22 10:52:00,77.5,63.0,29.75,WSW,253,0.0,0.0,61,0.00,,,0.00,weatherlink.com 1.10,2013-06-22 16:52:00,
2013-06-22 11:07:00,77.6,63.0,29.75,WSW,253,0.0,0.0,61,0.00,,,0.00,weatherlink.com 1.10,2013-06-22 17:07:00,
2013-06-22 11:22:00,77.4,62.0,29.75,WSW,253,0.0,0.0,59,0.00,,,0.00,weatherlink.com 1.10,2013-06-22 17:22:00,
2013-06-22 11:38:00,77.3,62.0,29.74,WSW,253,0.0,0.0,60,0.00,,,0.00,weatherlink.com 1.10,2013-06-22 17:38:00,
2013-06-22 11:53:00,77.3,62.0,29.73,WSW,253,0.0,0.0,60,0.00,,,0.00,weatherlink.com 1.10,2013-06-22 17:53:00,
2013-06-22 12:08:00,77.5,63.0,29.73,WSW,253,0.0,0.0,61,0.00,,,0.00,weatherlink.com 1.10,2013-06-22 18:08:00,
2013-06-22 12:23:00,77.5,61.0,29.73,WSW,253,0.0,0.0,58,0.00,,,0.00,weatherlink.com 1.10,2013-06-22 18:23:00,
2013-06-22 12:38:00,77.4,62.0,29.72,WSW,253,0.0,0.0,59,0.00,,,0.00,weatherlink.com 1.10,2013-06-22 18:38:00,
2013-06-22 12:53:00,77.4,62.0,29.71,WSW,253,0.0,0.0,60,0.00,,,0.00,weatherlink.com 1.10,2013-06-22 18:53:00,
2013-06-22 13:08:00,77.6,63.0,29.71,WSW,253,0.0,0.0,60,0.00,,,0.00,weatherlink.com 1.10,2013-06-22 19:08:00,
2013-06-22 13:23:00,77.6,62.0,29.70,WSW,253,0.0,0.0,58,0.00,,,0.00,weatherlink.com 1.10,2013-06-22 19:23:00,
2013-06-22 13:38:00,77.4,62.0,29.70,WSW,253,0.0,0.0,59,0.00,,,0.00,weatherlink.com 1.10,2013-06-22 19:38:00,
2013-06-22 13:53:00,77.5,62.0,29.70,WSW,253,0.0,0.0,60,0.00,,,0.00,weatherlink.com 1.10,2013-06-22 19:53:00,
2013-06-22 14:08:00,77.7,62.0,29.69,WSW,253,0.0,0.0,58,0.00,,,0.00,weatherlink.com 1.10,2013-06-22 20:08:00,
2013-06-22 14:23:00,77.6,62.0,29.69,WSW,253,0.0,0.0,58,0.00,,,0.00,weatherlink.com 1.10,2013-06-22 20:23:00,
2013-06-22 14:38:00,77.6,62.0,29.68,WSW,253,0.0,0.0,59,0.00,,,0.00,weatherlink.com 1.10,2013-06-22 20:38:00,
2013-06-22 14:53:00,77.8,62.0,29.68,WSW,253,0.0,0.0,58,0.00,,,0.00,weatherlink.com 1.10,2013-06-22 20:53:00,
2013-06-22 15:08:00,77.7,61.0,29.68,WSW,253,0.0,0.0,57,0.00,,,0.00,weatherlink.com 1.10,2013-06-22 21:08:00,
2013-06-22 15:23:00,77.7,62.0,29.67,WSW,253,0.0,0.0,58,0.00,,,0.00,weatherlink.com 1.10,2013-06-22 21:23:00,
2013-06-22 15:38:00,77.9,61.0,29.67,WSW,253,0.0,0.0,57,0.00,,,0.00,weatherlink.com 1.10,2013-06-22 21:38:00,
2013-06-22 15:53:00,77.8,61.0,29.66,WSW,253,0.0,0.0,57,0.00,,,0.00,weatherlink.com 1.10,2013-06-22 21:53:00,
2013-06-22 16:08:00,77.7,62.0,29.66,WSW,253,0.0,0.0,58,0.00,,,0.00,weatherlink.com 1.10,2013-06-22 22:08:00,
2013-06-22 16:23:00,77.9,61.0,29.65,WSW,253,0.0,0.0,57,0.00,,,0.00,weatherlink.com 1.10,2013-06-22 22:23:00,
2013-06-22 16:38:00,77.8,61.0,29.64,WSW,253,0.0,0.0,56,0.00,,,0.00,weatherlink.com 1.10,2013-06-22 22:38:00,
2013-06-22 16:53:00,77.7,61.0,29.64,WSW,253,0.0,0.0,57,0.00,,,0.00,weatherlink.com 1.10,2013-06-22 22:53:00,
2013-06-22 17:08:00,77.8,62.0,29.63,WSW,253,0.0,0.0,58,0.00,,,0.00,weatherlink.com 1.10,2013-06-22 23:08:00,
2013-06-22 17:23:00,77.9,61.0,29.63,WSW,253,0.0,0.0,56,0.00,,,0.00,weatherlink.com 1.10,2013-06-22 23:23:00,
2013-06-22 17:38:00,77.6,61.0,29.62,WSW,253,0.0,0.0,57,0.00,,,0.00,weatherlink.com 1.10,2013-06-22 23:38:00,
2013-06-22 17:53:00,77.7,61.0,29.62,WSW,253,0.0,0.0,57,0.00,,,0.00,weatherlink.com 1.10,2013-06-22 23:53:00,
2013-06-22 18:08:00,77.8,61.0,29.62,WSW,253,0.0,0.0,57,0.00,,,0.00,weatherlink.com 1.10,2013-06-23 00:08:00,
2013-06-22 18:23:00,77.7,61.0,29.62,WSW,253,0.0,0.0,56,0.00,,,0.00,weatherlink.com 1.10,2013-06-23 00:23:00,
2013-06-22 18:38:00,77.6,61.0,29.62,WSW,253,0.0,0.0,57,0.00,,,0.00,weatherlink.com 1.10,2013-06-23 00:38:00,
2013-06-22 18:53:00,77.7,61.0,29.62,WSW,253,0.0,0.0,57,0.00,,,0.00,weatherlink.com 1.10,2013-06-23 00:53:00,
2013-06-22 19:08:00,77.8,61.0,29.62,WSW,253,0.0,0.0,56,0.00,,,0.00,weatherlink.com 1.10,2013-06-23 01:08:00,
2013-06-22 19:23:00,77.6,61.0,29.62,WSW,253,0.0,0.0,56,0.00,,,0.00,weatherlink.com 1.10,2013-06-23 01:23:00,
2013-06-22 19:38:00,77.5,61.0,29.62,WSW,253,0.0,0.0,57,0.00,,,0.00,weatherlink.com 1.10,2013-06-23 01:38:00,
2013-06-22 19:53:00,77.5,61.0,29.62,WSW,253,0.0,0.0,57,0.00,,,0.00,weatherlink.com 1.10,2013-06-23 01:53:00,
2013-06-22 20:08:00,77.7,61.0,29.62,WSW,253,0.0,0.0,57,0.00,,,0.00,weatherlink.com 1.10,2013-06-23 02:08:00,
2013-06-22 20:23:00,77.8,61.0,29.63,WSW,253,0.0,0.0,57,0.00,,,0.00,weatherlink.com 1.10,2013-06-23 02:23:00,
2013-06-22 20:38:00,77.6,61.0,29.63,WSW,253,0.0,0.0,57,0.00,,,0.00,weatherlink.com 1.10,2013-06-23 02:38:00,
2013-06-22 20:53:00,77.6,62.0,29.64,WSW,253,0.0,0.0,58,0.00,,,0.00,weatherlink.com 1.10,2013-06-23 02:53:00,
2013-06-22 21:08:00,77.7,62.0,29.64,WSW,253,0.0,0.0,58,0.00,,,0.00,weatherlink.com 1.10,2013-06-23 03:08:00,
2013-06-22 21:23:00,77.9,62.0,29.64,WSW,253,0.0,0.0,59,0.00,,,0.00,weatherlink.com 1.10,2013-06-23 03:23:00,
2013-06-22 21:38:00,77.8,61.0,29.65,WSW,253,0.0,0.0,57,0.00,,,0.00,weatherlink.com 1.10,2013-06-23 03:38:00,
2013-06-22 21:53:00,77.6,62.0,29.66,WSW,253,0.0,0.0,58,0.00,,,0.00,weatherlink.com 1.10,2013-06-23 03:53:00,
2013-06-22 22:08:00,77.6,62.0,29.66,WSW,253,0.0,0.0,59,0.00,,,0.00,weatherlink.com 1.10,2013-06-23 04:08:00,
2013-06-22 22:23:00,77.7,62.0,29.66,WSW,253,0.0,0.0,59,0.00,,,0.00,weatherlink.com 1.10,2013-06-23 04:23:00,
2013-06-22 22:38:00,77.9,62.0,29.66,WSW,253,0.0,0.0,59,0.00,,,0.00,weatherlink.com 1.10,2013-06-23 04:38:00,
2013-06-22 22:53:00,77.8,61.0,29.66,WSW,253,0.0,0.0,57,0.00,,,0.00,weatherlink.com 1.10,2013-06-23 04:53:00,
2013-06-22 23:08:00,77.5,62.0,29.66,WSW,253,0.0,0.0,59,0.00,,,0.00,weatherlink.com 1.10,2013-06-23 05:08:00,
2013-06-22 23:23:00,77.4,62.0,29.66,WSW,253,0.0,0.0,59,0.00,,,0.00,weatherlink.com 1.10,2013-06-23 05:23:00,
2013-06-22 23:38:00,77.4,62.0,29.67,WSW,253,0.0,0.0,60,0.00,,,0.00,weatherlink.com 1.10,2013-06-23 05:38:00,
2013-06-22 23:53:00,77.6,63.0,29.66,WSW,253,0.0,0.0,60,0.00,,,0.00,weatherlink.com 1.10,2013-06-23 05:53:00,